Weather History for Ladysmith, WI

Change the Weather History Date:

Saturday, September 28, 2013

  Actual Average (KRPD) Record (KRPD)
Temperature  
Mean Temperature 61 °F -  
Max Temperature 73 °F 61 °F 79 °F (2014)
Min Temperature 49 °F 40 °F 32 °F (2012)
Degree Days  
Heating Degree Days 4    
Growing Degree Days 11 (Base 50)    
Moisture  
Dew Point 53 °F    
Average Humidity 78    
Maximum Humidity 95    
Minimum Humidity 57    
Precipitation  
Precipitation 0.20 in - - ()
Sea Level Pressure  
Sea Level Pressure 29.86 in    
Wind  
Wind Speed 10 mph (South)    
Max Wind Speed 20 mph    
Max Gust Speed 30 mph    
Visibility 9 miles    
Events Rain    
Averages and records for this station are not official NWS values.
T = Trace of Precipitation, MM = Missing Value Source: NWS Daily Summary

Daily Weather History Graph

Daily Weather History Graph

Search for Another Location

Airport:

Trip Planner

Search our weather history database for the weather conditions in past years. The results will help you decide how hot, cold, wet, or windy it might be!

Date:

Astronomy

Sep. 28, 2013 Rise Set
Actual Time 6:58 AM CDT 6:49 PM CDT
Civil Twilight 6:29 AM CDT 7:18 PM CDT
Nautical Twilight 5:54 AM CDT 7:53 PM CDT
Astronomical Twilight 5:19 AM CDT 8:28 PM CDT
Moon 12:31 AM CDT (9/28) 3:22 PM CDT (9/28)
Length of Visible Light 12h 49m
Length of Day
11h 50m
Waning Crescent, 36% of the Moon is Illuminated
Sep 28
Waning Crescent
Oct 4
New
Oct 11
First Quarter
Oct 18
Full
Oct 26
Last Quarter

Hourly Weather History & Observations

Time (CDT) Temp. Dew Point Humidity Pressure Visibility Wind Dir Wind Speed Gust Speed Precip Events Conditions
12:15 AM 66.4 °F 50.5 °F 57% 29.98 in 10.0 mi SE 8.1 mph - N/A   Clear
12:35 AM 65.5 °F 50.7 °F 59% 29.97 in 10.0 mi SE 8.1 mph - N/A   Clear
12:55 AM 64.8 °F 50.9 °F 61% 29.97 in 10.0 mi SSE 8.1 mph - N/A   Clear
1:15 AM 64.4 °F 50.9 °F 62% 29.96 in 10.0 mi SSE 9.2 mph - N/A   Clear
1:35 AM 64.0 °F 51.1 °F 63% 29.96 in 10.0 mi SE 9.2 mph - N/A   Clear
1:55 AM 63.7 °F 51.1 °F 64% 29.96 in 10.0 mi SE 9.2 mph - N/A   Scattered Clouds
2:15 AM 63.1 °F 51.3 °F 65% 29.96 in 10.0 mi SE 6.9 mph - N/A   Mostly Cloudy
2:35 AM 62.2 °F 51.6 °F 68% 29.95 in 10.0 mi SE 6.9 mph - N/A   Scattered Clouds
2:55 AM 61.7 °F 51.8 °F 70% 29.93 in 10.0 mi SE 6.9 mph - N/A   Clear
3:15 AM 61.2 °F 51.8 °F 71% 29.93 in 10.0 mi SE 8.1 mph - N/A   Clear
3:35 AM 61.2 °F 51.8 °F 71% 29.93 in 10.0 mi SE 9.2 mph - N/A   Clear
3:55 AM 61.2 °F 51.8 °F 71% 29.93 in 10.0 mi SE 8.1 mph - N/A   Clear
4:15 AM 60.8 °F 51.8 °F 72% 29.92 in 10.0 mi SE 9.2 mph - N/A   Clear
4:35 AM 60.4 °F 51.6 °F 73% 29.92 in 10.0 mi SE 8.1 mph - N/A   Scattered Clouds
4:55 AM 60.8 °F 51.3 °F 71% 29.92 in 10.0 mi SE 9.2 mph - N/A   Scattered Clouds
5:15 AM 60.8 °F 50.9 °F 70% 29.91 in 10.0 mi SE 9.2 mph - N/A   Mostly Cloudy
5:35 AM 61.2 °F 50.9 °F 69% 29.91 in 10.0 mi SE 9.2 mph - N/A   Overcast
5:55 AM 61.2 °F 50.7 °F 69% 29.90 in 10.0 mi SSE 6.9 mph - N/A   Overcast
6:15 AM 61.2 °F 50.5 °F 68% 29.90 in 10.0 mi SSE 9.2 mph - N/A   Mostly Cloudy
6:35 AM 61.7 °F 50.4 °F 66% 29.90 in 10.0 mi SSE 11.5 mph 17.3 mph N/A   Mostly Cloudy
6:55 AM 61.7 °F 50.5 °F 67% 29.90 in 10.0 mi SSE 10.4 mph 17.3 mph N/A   Mostly Cloudy
7:15 AM 61.9 °F 50.9 °F 67% 29.89 in 10.0 mi SSE 10.4 mph - N/A   Mostly Cloudy
7:35 AM 62.1 °F 51.3 °F 68% 29.88 in 10.0 mi SSE 8.1 mph - N/A   Mostly Cloudy
7:55 AM 62.6 °F 52.3 °F 69% 29.87 in 10.0 mi SSE 9.2 mph - N/A   Scattered Clouds
8:15 AM 63.7 °F 52.9 °F 68% 29.87 in 10.0 mi SSE 9.2 mph 18.4 mph N/A   Scattered Clouds
8:35 AM 64.4 °F 53.8 °F 68% 29.86 in 10.0 mi SSE 10.4 mph 17.3 mph N/A   Mostly Cloudy
8:55 AM 65.3 °F 54.7 °F 68% 29.85 in 10.0 mi SSE 15.0 mph 23.0 mph N/A   Scattered Clouds
9:15 AM 66.7 °F 55.4 °F 67% 29.84 in 10.0 mi SSE 12.7 mph 24.2 mph N/A   Scattered Clouds
9:35 AM 66.7 °F 55.9 °F 68% 29.84 in 10.0 mi SSE 18.4 mph 23.0 mph N/A   Scattered Clouds
9:55 AM 67.5 °F 56.3 °F 67% 29.82 in 10.0 mi SSE 17.3 mph 24.2 mph N/A   Mostly Cloudy
10:15 AM 68.5 °F 56.5 °F 65% 29.80 in 10.0 mi SSE 13.8 mph 24.2 mph N/A   Mostly Cloudy
10:35 AM 70.3 °F 56.8 °F 62% 29.79 in 10.0 mi SSE 15.0 mph 25.3 mph N/A   Scattered Clouds
10:55 AM 71.2 °F 57.0 °F 61% 29.78 in 10.0 mi SSE 17.3 mph 25.3 mph N/A   Scattered Clouds
11:15 AM 71.8 °F 57.4 °F 60% 29.76 in 10.0 mi SSE 18.4 mph 25.3 mph N/A   Mostly Cloudy
11:35 AM 72.3 °F 57.7 °F 60% 29.75 in 10.0 mi SSE 18.4 mph 25.3 mph N/A   Mostly Cloudy
11:55 AM 72.9 °F 57.7 °F 59% 29.74 in 10.0 mi SSE 18.4 mph 26.5 mph N/A   Overcast
12:15 PM 72.7 °F 57.9 °F 60% 29.73 in 10.0 mi SSE 17.3 mph 28.8 mph N/A   Overcast
12:35 PM 72.7 °F 58.1 °F 60% 29.72 in 10.0 mi SSE 17.3 mph 29.9 mph N/A   Mostly Cloudy
12:55 PM 72.1 °F 58.1 °F 61% 29.72 in 10.0 mi SSE 17.3 mph 29.9 mph N/A   Mostly Cloudy
1:15 PM 71.4 °F 59.0 °F 65% 29.72 in 10.0 mi South 15.0 mph 28.8 mph N/A Rain Light Rain
1:35 PM 67.6 °F 61.2 °F 80% 29.72 in 4.0 mi South 19.6 mph 29.9 mph N/A Rain Light Rain
1:55 PM 65.5 °F 62.4 °F 90% 29.72 in 3.0 mi South 11.5 mph 17.3 mph 0.01 in Rain Light Rain
2:15 PM 65.3 °F 62.6 °F 91% 29.71 in 7.0 mi South 12.7 mph 21.9 mph N/A Rain Light Rain
2:35 PM 65.5 °F 62.6 °F 90% 29.71 in 5.0 mi South 13.8 mph 19.6 mph 0.01 in   Drizzle
2:55 PM 65.3 °F 62.6 °F 91% 29.71 in 7.0 mi South 17.3 mph 24.2 mph 0.02 in Rain Light Rain
3:15 PM 65.3 °F 62.6 °F 91% 29.73 in 4.0 mi SW 18.4 mph 25.3 mph 0.04 in Rain Rain
3:35 PM 59.0 °F 56.3 °F 91% 29.76 in 7.0 mi WSW 16.1 mph 19.6 mph 0.09 in Rain Rain
3:55 PM 56.7 °F 54.5 °F 92% 29.79 in 3.0 mi WSW 13.8 mph 18.4 mph 0.11 in   Drizzle
4:15 PM 55.8 °F 54.0 °F 94% 29.79 in 3.0 mi WSW 10.4 mph 16.1 mph 0.02 in   Drizzle
4:35 PM 55.0 °F 53.1 °F 93% 29.80 in 4.0 mi WSW 11.5 mph 16.1 mph 0.04 in Rain Rain
4:55 PM 54.9 °F 53.1 °F 94% 29.83 in 7.0 mi WSW 10.4 mph - 0.05 in   Light Drizzle
5:15 PM 54.7 °F 52.7 °F 93% 29.83 in 10.0 mi WSW 8.1 mph - 0.01 in Rain Light Rain
5:35 PM 54.9 °F 52.7 °F 92% 29.84 in 10.0 mi WSW 8.1 mph - 0.01 in   Overcast
5:55 PM 54.9 °F 52.7 °F 92% 29.86 in 10.0 mi SW 9.2 mph - 0.01 in   Overcast
6:15 PM 54.5 °F 52.3 °F 92% 29.85 in 10.0 mi WSW 9.2 mph - N/A   Mostly Cloudy
6:35 PM 54.5 °F 52.7 °F 94% 29.87 in 10.0 mi SW 6.9 mph - N/A   Mostly Cloudy
6:55 PM 53.8 °F 52.0 °F 94% 29.86 in 10.0 mi SSW 6.9 mph - N/A   Mostly Cloudy
7:15 PM 53.6 °F 52.2 °F 95% 29.87 in 10.0 mi SSW 5.8 mph - N/A   Mostly Cloudy
7:35 PM 53.2 °F 51.8 °F 95% 29.88 in 10.0 mi SW 4.6 mph - N/A   Mostly Cloudy
7:55 PM 53.4 °F 52.0 °F 95% 29.88 in 10.0 mi SSW 6.9 mph - N/A   Mostly Cloudy
8:15 PM 53.1 °F 51.8 °F 95% 29.89 in 10.0 mi SW 8.1 mph - N/A   Scattered Clouds
8:35 PM 52.5 °F 51.1 °F 95% 29.90 in 10.0 mi WSW 5.8 mph - N/A   Clear
8:55 PM 52.5 °F 51.3 °F 95% 29.90 in 10.0 mi SW 6.9 mph - N/A   Mostly Cloudy
9:15 PM 52.7 °F 51.3 °F 95% 29.91 in 10.0 mi WSW 5.8 mph - N/A   Overcast
9:35 PM 53.1 °F 51.3 °F 94% 29.92 in 10.0 mi SW 4.6 mph - N/A   Overcast
9:55 PM 52.0 °F 50.4 °F 94% 29.92 in 10.0 mi SW 6.9 mph - N/A   Scattered Clouds
10:15 PM 51.8 °F 50.2 °F 94% 29.93 in 10.0 mi WSW 8.1 mph - N/A   Clear
10:35 PM 51.8 °F 49.6 °F 92% 29.93 in 10.0 mi WSW 9.2 mph - N/A   Clear
10:55 PM 51.8 °F 49.1 °F 90% 29.94 in 10.0 mi West 6.9 mph - N/A   Clear
11:15 PM 51.3 °F 48.4 °F 90% 29.94 in 10.0 mi WSW 5.8 mph - N/A   Clear
11:35 PM 50.5 °F 47.7 °F 90% 29.94 in 10.0 mi West 5.8 mph - N/A   Clear
11:55 PM 49.8 °F 47.3 °F 91% 29.95 in 10.0 mi West 6.9 mph - N/A   Clear